Powrót do katalogu

COSMOS 1275 DEB

LostPO
NORAD 17026·DEBRIS·🇷🇺 Russia

Wystrzelony Jun 4, 1981 z Plesetsk Cosmodrome

Loading…

Następne Przeloty (najbliższe 24 godziny)

TLE

NieaktualneSource: Space-Track

Epoka: Nov 10, 2017, 14:57 UTC

1 17026U 81053KG  17314.62292282  .00000318  00000-0  26343-3 0  9995
2 17026  83.1337   7.6587 0075145 307.7832 205.8717 13.84752606632180

Śledź COSMOS 1275 DEB w czasie rzeczywistym z AllMySat

Download on the App Store